sat.trackr.live / text

‹ back to catalog

STARLINK-11407 [DTC]

NORAD 61939 · 2024-209A

PAYLOAD ACTIVE UNKNOWN

§ Identity

Operator
Country
US
Launch date
2024-11-14
Launch site
AFWTR
Launch vehicle
Mass (kg)
RCS (m²)

Purposes: comms

External: N2YO · Heavens-Above · Gunter

§ Orbital elements

Epoch: 2026-09-21T20:55:37.413984Z

Period
91.74 min
Inclination
53.1567°
Eccentricity
0.0000920
Mean motion
15.69709685 rev/d
Perigee alt
359.1 km
Apogee alt
360.3 km
Semi-major
6,737.9 km
B*
1.1745e-3
RAAN
123.9319°
Arg perigee
90.7330°
Mean anomaly
269.3793°
Rev number
10,755

§ Raw data

STARLINK-11407 [DTC]1 61939U 24209A   26264.87196081  .00144195  00000+0  11745-2 0  99982 61939  53.1567 123.9319 0000920  90.7330 269.3793 15.69709685107551

JSON: /api/v1/satellites/61939 · /tle

For live sub-satellite position, see the globe view (requires WebGL).

§ Visibility from observer

Set your observer location to see the next 7 days of passes ≥ 10°. The values pass through the URL so the page stays shareable.

No JS? Fill the form by hand. The geolocation button needs JavaScript.